Location: Finnegan
(51.1333°N, 112.0833°W)
Time: 19:40:30
(UTC+00:00)

Envisat - Pass Details

Date: 02 December 2021
Orbit: 764 x 766 km, 98.2° (Epoch: 26 January)

Event Time Altitude Azimuth Distance (km) Brightness Sun altitude
Rises 11:45:45 0° 21° (NNE) 3,247 6.5 -31.3°
Reaches altitude 10° 11:48:20 10° 32° (NNE) 2,316 5.8 -30.9°
Maximum altitude 11:52:51 31° 94° (E) 1,321 4.7 -30.2°
Drops below altitude 10° 11:57:20 10° 156° (SSE) 2,299 5.7 -29.5°
Sets 11:59:52 0° 167° (SSE) 3,220 6.4 -29.1°
